SL-8 DEB, 1478

Orbit data source: Space-Track

SL-8 DEB, 1478 is space debris in LEO originally from a launch on Mon, 15 Mar 1965 UTC launched from the Tyuratam Missile And Space Complex (TTMTR). Debris objects in space refer to the collection of defunct objects orbiting the Earth. Examples of debris include non-operational satellites, rocket bodies, and fragments generated from explosions, collisions, or faulty payload assembly.

Loading next visibility...
Identifier
1478, 1965-020BC
Orbit
LEO
Country
Flag of CISCIS
Related business
Manufacturer
Unknown
Mission
Spacecraft
Bus & Motor
Unknown
Mass
Unknown
Launch date (UTC)
1965-03-15 (61 years ago)
Launch vehicle
Unknown
Launch site
Tyuratam Missile And Space Complex (TTMTR)
Object type
Payload
Rocket body
Debris
Shape & HBR
Unknown shape, 0.1 m
Radar Cross Section
Medium (>0.1 m² and <1 m²)

Expand to show TLE details & history
Last TLE update: 5 hours ago

TLE from 5 hours ago
0 SL-8 DEB
1  1478U 65020BC  26196.49245153  .00000452  00000-0  27783-3 0  9991
2  1478  56.0778 254.2278 0584143 281.2733  72.3154 13.56048670928715
Epoch: 2026-07-15T11:49Z
TLE epoch observation values (Epoch: 2026-07-15T11:49:07.812Z)
Latitude
-0.00008°
Longitude
143.59772°
Altitude
942.981 km
Speed
7.435 km/s
True Right ascension
16h 56m 54s
True Declination
0° 00' 00"
Sunlit
Object was in full shadow at epoch
Visualization orbit readout
Latitude
Unknown
Longitude
Unknown
Altitude
Unknown
Speed
Unknown
Apparent Right ascension
Unknown
Apparent Declination
Unknown
Sunlit
N/A
Visualization observer readout
Local Sidereal Time
05:52:25
Azimuth
Unknown
Elevation
Unknown
Doppler factor
Unknown
Orbital elements
Apogee altitude
1,483.799 km
Perigee altitude
615.992 km
Semi-major axis
7,428.033 km
Eccentricity
0.05841
Inclination
56.0778°
RAAN
254.2278°
Arg. of periapsis
281.2733°
True anomaly
78.82333°
Mean anomaly
72.3154°
Eccentric anomaly
75.55651°
Mean motion
3.39026 °/min
Orbital period
106.19 mins
BSTAR
0.00027783
Loading maneuver chart data...
Computing Atmospheric mass density...

Documentation

Showing up to 5 results
|